User: anonymous   Login
Location: Strohbehn Observatory
(42.4649°N, 93.8239°W)
Time: 16:47:10
(UTC-06:00)
Language:

SL-16 R/B - Orbit

View from above orbital plane
View from above orbital plane
View from above satellite
View from above satellite

Ground track
Ground track

The orbit data is extracted from the following two-line orbital elements,

1 31793U 07029B   14332.29587079  .00000129  00000-0  92293-4 0  1321
2 31793 070.9756 186.4874 0001956 279.1430 200.5409 14.14301771382950
Epoch (UTC): 28 November 2014 07:06:03
Eccentricity: 0.0001956
inclination: 70.9756°
perigee height: 843 km
apogee height: 846 km
right ascension of ascending node: 186.4874°
argument of perigee: 279.1430°
revolutions per day: 14.14301771
mean anomaly at epoch: 200.5409°
orbit number at epoch: 38295

The dashed part of the orbit path shows where the satellite is in the earth's shadow,  

DLR